TimeEEST,TemperatureF,Dew PointF,Humidity,Sea Level PressureIn,VisibilityMPH,Wind Direction,Wind SpeedMPH,Gust SpeedMPH,PrecipitationIn,Events,Conditions,WindDirDegrees,DateUTC
12:20 AM,60.8,57.2,88,29.95,6.2,ESE,4.6,-,N/A,,Partly Cloudy,110,2012-10-11 21:20:00
12:50 AM,60.8,57.2,88,29.95,6.2,SSE,3.5,-,N/A,,Partly Cloudy,150,2012-10-11 21:50:00
1:20 AM,59.0,55.4,88,29.95,6.2,NNE,3.5,-,N/A,,Partly Cloudy,20,2012-10-11 22:20:00
1:50 AM,59.0,55.4,88,29.95,6.2,Variable,2.3,-,N/A,,Partly Cloudy,0,2012-10-11 22:50:00
2:20 AM,59.0,57.2,94,29.95,6.2,SE,3.5,-,N/A,,Partly Cloudy,140,2012-10-11 23:20:00
2:50 AM,57.2,55.4,94,29.95,-9999.0,SE,4.6,-,N/A,,Clear,130,2012-10-11 23:50:00
3:50 AM,57.2,55.4,94,29.95,-9999.0,SSE,4.6,-,N/A,,Clear,150,2012-10-12 00:50:00
4:20 AM,57.2,55.4,94,29.95,-9999.0,SE,4.6,-,N/A,,Clear,140,2012-10-12 01:20:00
4:50 AM,57.2,53.6,88,29.98,-9999.0,Variable,2.3,-,N/A,,Clear,0,2012-10-12 01:50:00
5:20 AM,55.4,53.6,94,29.98,-9999.0,Variable,2.3,-,N/A,,Clear,0,2012-10-12 02:20:00
5:50 AM,55.4,53.6,94,29.98,-9999.0,ESE,5.8,-,N/A,,Clear,120,2012-10-12 02:50:00
6:20 AM,57.2,53.6,88,29.98,-9999.0,Variable,2.3,-,N/A,,Clear,0,2012-10-12 03:20:00
6:50 AM,53.6,51.8,94,29.98,-9999.0,NNE,4.6,-,N/A,,Clear,20,2012-10-12 03:50:00
7:20 AM,55.4,51.8,88,29.98,-9999.0,Variable,2.3,-,N/A,,Clear,0,2012-10-12 04:20:00
7:50 AM,55.4,53.6,94,30.01,-9999.0,ESE,3.5,-,N/A,,Clear,110,2012-10-12 04:50:00
8:20 AM,57.2,53.6,88,30.01,-9999.0,Variable,2.3,-,N/A,,Clear,0,2012-10-12 05:20:00
8:50 AM,60.8,55.4,82,30.01,-9999.0,SSE,3.5,-,N/A,,Clear,150,2012-10-12 05:50:00
9:20 AM,64.4,57.2,77,30.01,-9999.0,NE,3.5,-,N/A,,Clear,40,2012-10-12 06:20:00
9:50 AM,64.4,57.2,77,30.01,-9999.0,Variable,2.3,-,N/A,,Clear,0,2012-10-12 06:50:00
10:20 AM,68.0,57.2,68,30.01,-9999.0,Variable,2.3,-,N/A,,Clear,0,2012-10-12 07:20:00
10:50 AM,71.6,57.2,60,30.01,-9999.0,Variable,2.3,-,N/A,,Clear,0,2012-10-12 07:50:00
11:20 AM,75.2,53.6,47,30.01,-9999.0,Variable,2.3,-,N/A,,Clear,0,2012-10-12 08:20:00
11:50 AM,77.0,51.8,41,30.01,-9999.0,Variable,2.3,-,N/A,,Clear,0,2012-10-12 08:50:00
12:20 PM,78.8,50.0,36,30.01,-9999.0,WNW,4.6,-,N/A,,Clear,290,2012-10-12 09:20:00
12:50 PM,80.6,50.0,34,30.01,-9999.0,West,10.4,-,N/A,,Clear,280,2012-10-12 09:50:00
1:20 PM,80.6,50.0,34,30.01,-9999.0,West,12.7,-,N/A,,Clear,280,2012-10-12 10:20:00
1:50 PM,80.6,50.0,34,30.01,6.2,West,15.0,-,N/A,,Scattered Clouds,280,2012-10-12 10:50:00
2:20 PM,80.6,51.8,37,30.01,6.2,West,15.0,-,N/A,,Scattered Clouds,270,2012-10-12 11:20:00
2:50 PM,80.6,53.6,39,30.01,6.2,West,15.0,-,N/A,,Scattered Clouds,270,2012-10-12 11:50:00
3:20 PM,78.8,44.6,30,30.01,6.2,West,17.3,-,N/A,,Scattered Clouds,270,2012-10-12 12:20:00
3:50 PM,78.8,48.2,34,30.01,6.2,West,16.1,-,N/A,,Scattered Clouds,270,2012-10-12 12:50:00
4:20 PM,78.8,51.8,39,30.01,6.2,West,15.0,-,N/A,,Scattered Clouds,270,2012-10-12 13:20:00
4:50 PM,75.2,51.8,44,30.01,6.2,West,15.0,-,N/A,,Scattered Clouds,270,2012-10-12 13:50:00
5:20 PM,75.2,53.6,47,30.01,6.2,West,12.7,-,N/A,,Scattered Clouds,260,2012-10-12 14:20:00
5:50 PM,73.4,53.6,50,30.01,6.2,WSW,9.2,-,N/A,,Mostly Cloudy,250,2012-10-12 14:50:00
6:20 PM,73.4,53.6,50,30.04,6.2,SW,5.8,-,N/A,,Mostly Cloudy,230,2012-10-12 15:20:00
6:50 PM,71.6,53.6,53,30.01,6.2,SW,6.9,-,N/A,,Mostly Cloudy,230,2012-10-12 15:50:00
7:20 PM,68.0,57.2,68,30.04,6.2,ESE,3.5,-,N/A,,Mostly Cloudy,110,2012-10-12 16:20:00
7:50 PM,68.0,57.2,68,30.04,6.2,Variable,2.3,-,N/A,,Mostly Cloudy,0,2012-10-12 16:50:00
8:20 PM,68.0,57.2,68,30.04,6.2,SSE,3.5,-,N/A,,Mostly Cloudy,150,2012-10-12 17:20:00
8:50 PM,64.4,57.2,77,30.04,6.2,East,3.5,-,N/A,,Mostly Cloudy,100,2012-10-12 17:50:00
9:20 PM,66.2,57.2,73,30.04,6.2,SSE,3.5,-,N/A,,Mostly Cloudy,160,2012-10-12 18:20:00
9:50 PM,64.4,57.2,77,30.04,6.2,Variable,2.3,-,N/A,,Mostly Cloudy,0,2012-10-12 18:50:00
10:20 PM,62.6,57.2,82,30.04,6.2,NE,3.5,-,N/A,,Mostly Cloudy,50,2012-10-12 19:20:00
10:50 PM,60.8,55.4,82,30.04,-9999.0,East,4.6,-,N/A,,Clear,100,2012-10-12 19:50:00
11:20 PM,60.8,55.4,82,30.04,-9999.0,SE,3.5,-,N/A,,Clear,130,2012-10-12 20:20:00
11:50 PM,59.0,55.4,88,30.04,-9999.0,ESE,4.6,-,N/A,,Clear,120,2012-10-12 20:50:00